CAPE
0 226 887 690 599 522 388 345 245 183 41 18 19 14 11 11 8 5 4 6 3 4 5 4 3 2 1 1 1 0 0 0 0 0 0 0 4 534 579 695 750 791 846
0 319 887 792 558 430 254 123 27 18 17 16 13 6 7 9 8 5 5 5 5 4 4 3 1 0 0 0 0 0 0 0 0 0 0 0 0 2 119 173 406 573 681
40 325 326 693 272 111 23 19 17 16 11 10 10 9 9 9 7 7 4 4 3 1 1 1 0 1 1 0 0 0 0 0 0 0 0 0 0 4 3 0 0 10 22
8 55 8 260 53 20 13 10 9 9 10 8 6 8 7 4 4 3 2 1 1 0 1 0 2 1 0 0 0 0 0 0 0 0 0 0 0 2 3 0 0 0 0
0 1 19 47 27 16 14 12 7 7 8 8 7 4 4 1 1 0 0 0 0 0 0 1 0 1 0 0 0 0 0 0 0 0 0 0 0 0 3 3 0 0 0
0 0 18 25 9 13 11 10 9 11 8 9 5 2 1 0 0 0 0 0 1 0 2 0 0 0 0 0 0 0 0 0 0 0 0 0 0 2 4 2 2 1 0
0 0 5 14 10 12 9 9 11 12 8 6 3 0 0 0 0 0 0 1 1 0 0 0 0 0 0 0 0 0 0 0 0 0 0 0 0 0 1 0 0 0 0
0 0 3 10 27 19 15 13 12 12 7 5 1 0 1 0 0 0 1 0 0 0 0 0 0 0 0 0 0 0 0 0 0 0 0 0 0 1 2 1 1 1 1
0 0 1 13 18 27 29 29 18 10 4 4 0 1 0 0 0 0 0 0 0 0 0 0 0 0 0 0 0 0 0 0 0 0 0 0 0 1 1 1 1 1 1
0 0 0 1 12 15 19 32 26 11 3 2 0 0 0 0 0 0 0 0 0 0 0 0 0 0 0 0 0 0 0 0 0 0 0 0 0 0 0 1 1 1 2
0 0 0 0 1 0 3 13 18 10 5 0 0 0 0 0 0 0 0 0 0 0 0 0 0 0 0 0 0 0 0 0 0 0 0 0 0 1 1 0 0 1 1
0 0 0 0 0 0 0 0 0 0 0 0 0 0 0 0 0 0 0 0 0 0 0 0 0 0 0 0 0 0 0 0 0 0 0 0 0 0 0 2 0 1 2
1 0 0 0 0 0 0 0 0 0 0 0 0 0 0 0 0 0 0 0 0 0 0 0 0 0 0 0 0 0 0 0 0 0 0 0 0 2 3 1 0 0 0
1 0 0 0 0 0 0 0 0 0 0 0 0 0 0 0 0 0 0 0 0 0 0 0 0 0 0 0 0 0 0 0 0 0 0 0 0 0 0 0 1 1 3
0 0 0 0 0 0 0 0 0 0 0 0 0 0 0 0 0 0 0 0 0 0 0 0 0 0 0 0 0 0 0 0 0 0 0 0 0 0 0 0 0 1 2
0 0 0 0 0 0 0 0 0 0 0 0 0 0 0 0 0 0 0 0 0 0 0 0 0 0 0 0 0 0 0 0 0 0 0 0 0 0 0 0 0 0 1
1 0 0 0 0 0 0 0 0 0 0 0 0 0 0 0 0 0 0 0 0 0 0 0 0 0 0 0 0 0 0 0 0 0 0 0 0 0 0 0 0 0 0
1 1 0 0 0 0 0 0 0 0 0 0 0 0 0 0 0 0 0 0 0 0 0 0 0 0 0 0 0 0 0 0 0 0 0 0 0 0 0 0 0 0 0
0 0 0 0 0 0 0 0 0 0 0 0 0 0 0 0 0 0 0 0 0 0 0 0 0 0 0 0 0 0 0 0 0 0 0 0 0 0 0 0 0 0 0
0 0 0 0 0 0 0 0 0 0 0 0 0 0 0 0 0 0 0 0 0 0 0 0 0 0 0 0 0 0 0 0 0 0 0 0 0 0 0 0 0 0 0
0 0 0 0 0 0 0 0 0 0 0 0 0 0 0 0 0 0 0 0 0 0 0 0 0 0 0 0 0 0 0 0 0 0 0 0 0 0 0 0 0 0 0
0 0 0 0 0 0 0 0 0 0 0 0 0 0 0 0 0 0 0 0 0 0 0 0 0 0 0 0 0 0 0 0 0 0 0 0 0 0 0 0 0 0 0
0 0 0 0 0 0 0 0 0 0 0 0 0 0 0 0 0 0 0 0 0 0 0 0 0 0 0 0 0 0 0 0 0 0 0 0 0 0 0 0 0 0 0
0 0 0 0 0 0 0 0 0 0 0 0 0 0 0 0 0 0 0 0 0 0 0 0 0 0 0 0 0 0 0 0 0 0 0 0 0 0 0 0 0 0 0
0 0 0 0 0 0 0 0 0 0 0 0 0 0 0 0 0 0 0 0 0 0 0 0 0 0 0 0 0 0 0 0 0 0 0 0 0 0 0 0 0 0 0
0 0 0 0 0 0 0 0 0 0 0 0 0 0 0 0 0 0 0 0 0 0 0 0 0 0 0 0 0 0 0 0 0 0 0 0 0 0 0 0 0 0 0
CIN
-0 -7 -0 -0 -0 -0 -0 -2 -2 -10 -67 -6 -4 -0 -0 -0 -0 -0 -0 -0 -0 -0 -0 -0 -0 -0 -0 -0 -0 -0 -0 -0 -0 -0 -0 -0 -15 -9 -9 -0 -0 -0 -0
-0 -13 -0 -0 -0 -0 -0 -14 -27 -8 -5 -1 -0 -0 -0 -0 -0 -0 -0 -0 -0 -0 -0 -0 -0 -0 -0 -0 -0 -0 -0 -0 -0 -0 -0 -0 -0 -9 -143 -95 -30 -1 -0
-35 -14 -15 -0 -2 -12 -35 -4 -1 -1 -0 -0 -0 -0 -0 -0 -0 -0 -0 -0 -0 -0 -0 -0 -0 -0 -0 -0 -0 -0 -0 -0 -0 -0 -0 -0 -0 -0 -1 -3 -0 -77 -175
-0 -35 -1 -8 -24 -0 -0 -0 -0 -0 -0 -0 -0 -0 -0 -0 -0 -0 -0 -0 -0 -0 -0 -0 -0 -0 -0 -0 -0 -0 -0 -0 -0 -0 -0 -0 -0 -0 -0 -0 -0 -0 -0
-0 -7 -17 -3 -0 -0 -0 -0 -0 -0 -0 -0 -0 -0 -0 -0 -0 -0 -0 -0 -0 -0 -0 -0 -0 -0 -0 -0 -0 -0 -0 -0 -0 -0 -0 -0 -0 -0 -0 -0 -0 -0 -0
-0 -14 -1 -0 -0 -0 -0 -0 -0 -0 -0 -0 -0 -0 -0 -0 -0 -0 -0 -0 -0 -0 -0 -0 -0 -0 -0 -0 -0 -0 -0 -0 -0 -0 -0 -0 -0 -0 -0 -0 -0 -0 -0
-0 -4 -4 -0 -0 -0 -0 -0 -0 -0 -0 -0 -0 -0 -0 -0 -0 -0 -0 -0 -0 -0 -0 -0 -0 -0 -0 -0 -0 -0 -0 -0 -0 -0 -0 -0 -0 -0 -0 -0 -0 -0 -0
-0 -0 -0 -0 -0 -0 -0 -0 -0 -0 -0 -0 -0 -0 -0 -0 -0 -0 -0 -0 -0 -0 -0 -0 -0 -0 -0 -0 -0 -0 -0 -0 -0 -0 -0 -0 -0 -0 -0 -0 -0 -0 -0
-0 -0 -2 -0 -0 -0 -0 -0 -0 -0 -0 -0 -0 -0 -0 -0 -0 -0 -0 -0 -0 -0 -0 -0 -0 -0 -0 -0 -0 -0 -0 -0 -0 -0 -0 -0 -0 -0 -0 -0 -0 -0 -0
-0 -0 -0 -1 -1 -0 -0 -0 -0 -0 -0 -0 -0 -0 -0 -0 -0 -0 -0 -0 -0 -0 -0 -0 -0 -0 -0 -0 -0 -0 -0 -0 -0 -0 -0 -0 -0 -0 -0 -0 -0 -0 -0
-0 -0 -0 -0 -5 -2 -4 -0 -0 -0 -0 -0 -0 -0 -0 -0 -0 -0 -0 -0 -0 -0 -0 -0 -0 -0 -0 -0 -0 -0 -0 -0 -0 -0 -0 -0 -0 -0 -0 -0 -0 -0 -0
-0 -0 -0 -0 -0 -0 -0 -1 -0 -0 -0 -0 -0 -0 -0 -0 -0 -0 -0 -0 -0 -0 -0 -0 -0 -0 -0 -0 -0 -0 -0 -0 -0 -0 -0 -0 -0 -0 -0 -0 -0 -0 -0
-0 -0 -0 -0 -0 -0 -0 -0 -0 -0 -0 -0 -0 -0 -0 -0 -0 -0 -0 -0 -0 -0 -0 -0 -0 -0 -0 -0 -0 -0 -0 -0 -0 -0 -0 -0 -0 -0 -0 -0 -0 -0 -0
-0 -0 -0 -0 -0 -0 -0 -0 -0 -0 -0 -0 -0 -0 -0 -0 -0 -0 -0 -0 -0 -0 -0 -0 -0 -0 -0 -0 -0 -0 -0 -0 -0 -0 -0 -0 -0 -0 -0 -0 -0 -0 -0
-0 -0 -0 -0 -0 -0 -0 -0 -0 -0 -0 -0 -0 -0 -0 -0 -0 -0 -0 -0 -0 -0 -0 -0 -0 -0 -0 -0 -0 -0 -0 -0 -0 -0 -0 -0 -0 -0 -0 -0 -0 -0 -0
-0 -0 -0 -0 -0 -0 -0 -0 -0 -0 -0 -0 -0 -0 -0 -0 -0 -0 -0 -0 -0 -0 -0 -0 -0 -0 -0 -0 -0 -0 -0 -0 -0 -0 -0 -0 -0 -0 -0 -0 -0 -0 -0
-0 -0 -0 -0 -0 -0 -0 -0 -0 -0 -0 -0 -0 -0 -0 -0 -0 -0 -0 -0 -0 -0 -0 -0 -0 -0 -0 -0 -0 -0 -0 -0 -0 -0 -0 -0 -0 -0 -0 -0 -0 -0 -0
-0 -0 -0 -0 -0 -0 -0 -0 -0 -0 -0 -0 -0 -0 -0 -0 -0 -0 -0 -0 -0 -0 -0 -0 -0 -0 -0 -0 -0 -0 -0 -0 -0 -0 -0 -0 -0 -0 -0 -0 -0 -0 -0
-0 -0 -0 -0 -0 -0 -0 -0 -0 -0 -0 -0 -0 -0 -0 -0 -0 -0 -0 -0 -0 -0 -0 -0 -0 -0 -0 -0 -0 -0 -0 -0 -0 -0 -0 -0 -0 -0 -0 -0 -0 -0 -0
-0 -0 -0 -0 -0 -0 -0 -0 -0 -0 -0 -0 -0 -0 -0 -0 -0 -0 -0 -0 -0 -0 -0 -0 -0 -0 -0 -0 -0 -0 -0 -0 -0 -0 -0 -0 -0 -0 -0 -0 -0 -0 -0
-0 -0 -0 -0 -0 -0 -0 -0 -0 -0 -0 -0 -0 -0 -0 -0 -0 -0 -0 -0 -0 -0 -0 -0 -0 -0 -0 -0 -0 -0 -0 -0 -0 -0 -0 -0 -0 -0 -0 -0 -0 -0 -0
-0 -0 -0 -0 -0 -0 -0 -0 -0 -0 -0 -0 -0 -0 -0 -0 -0 -0 -0 -0 -0 -0 -0 -0 -0 -0 -0 -0 -0 -0 -0 -0 -0 -0 -0 -0 -0 -0 -0 -0 -0 -0 -0
-0 -0 -0 -0 -0 -0 -0 -0 -0 -0 -0 -0 -0 -0 -0 -0 -0 -0 -0 -0 -0 -0 -0 -0 -0 -0 -0 -0 -0 -0 -0 -0 -0 -0 -0 -0 -0 -0 -0 -0 -0 -0 -0
-0 -0 -0 -0 -0 -0 -0 -0 -0 -0 -0 -0 -0 -0 -0 -0 -0 -0 -0 -0 -0 -0 -0 -0 -0 -0 -0 -0 -0 -0 -0 -0 -0 -0 -0 -0 -0 -0 -0 -0 -0 -0 -0
-0 -0 -0 -0 -0 -0 -0 -0 -0 -0 -0 -0 -0 -0 -0 -0 -0 -0 -0 -0 -0 -0 -0 -0 -0 -0 -0 -0 -0 -0 -0 -0 -0 -0 -0 -0 -0 -0 -0 -0 -0 -0 -0
-0 -0 -0 -0 -0 -0 -0 -0 -0 -0 -0 -0 -0 -0 -0 -0 -0 -0 -0 -0 -0 -0 -0 -0 -0 -0 -0 -0 -0 -0 -0 -0 -0 -0 -0 -0 -0 -0 -0 -0 -0 -0 -0
Wind_Speed
9 12 19 20 20 20 19 19 19 19 19 19 18 17 16 16 15 15 15 15 16 15 16 15 15 15 15 16 17 18 18 18 18 17 16 14 16 15 17 16 13 13 14
14 15 20 22 22 21 20 20 18 18 19 18 17 16 16 16 15 16 15 15 15 14 15 14 14 14 16 17 17 18 18 18 18 17 16 15 15 15 18 18 19 16 18
16 18 20 20 20 19 18 18 18 18 17 17 17 17 16 16 15 15 15 14 14 15 15 14 14 15 16 17 17 17 17 17 17 16 16 11 12 17 17 18 19 19 19
15 16 16 20 20 20 20 19 19 19 18 17 17 16 16 16 15 15 15 13 15 16 15 14 16 15 16 16 17 17 16 17 16 16 10 11 10 16 16 17 17 18 18
14 14 16 21 22 21 21 21 20 19 19 18 17 16 15 16 15 15 15 14 15 15 14 16 15 15 15 16 16 16 16 16 15 13 10 11 8 13 15 16 15 15 16
13 14 18 21 21 21 21 21 21 20 19 19 17 17 15 16 15 15 15 16 16 15 15 15 15 14 16 15 16 16 16 16 13 11 10 11 11 14 15 15 15 14 14
13 14 15 21 22 22 22 21 21 20 19 19 18 17 16 16 16 14 15 17 16 14 14 15 15 14 16 16 16 17 17 16 10 10 10 10 11 13 13 14 14 14 14
14 13 14 19 21 22 21 20 20 20 20 19 18 18 17 17 16 14 16 17 16 15 14 15 15 15 16 16 16 17 16 15 10 9 10 9 13 13 13 14 13 13 13
13 13 11 14 16 19 19 19 19 19 19 19 18 17 18 17 16 16 17 17 17 16 14 15 14 16 16 16 17 16 16 15 9 8 9 7 14 14 14 15 15 14 14
11 11 11 12 13 12 13 18 17 18 18 20 19 17 17 16 17 16 16 17 16 16 15 14 15 16 16 16 16 16 14 13 10 8 7 8 14 14 15 15 15 15 15
9 10 11 11 11 11 11 13 16 18 17 20 18 17 13 8 11 13 15 17 17 16 15 14 14 16 14 14 16 15 12 6 8 6 6 14 14 15 16 16 16 16 16
17 13 12 12 13 12 9 9 9 10 9 10 11 11 9 10 10 12 14 16 16 15 14 14 14 14 11 6 6 9 5 7 6 6 6 13 14 14 14 17 18 17 17
16 12 13 13 13 12 9 7 5 6 6 7 11 9 9 7 7 6 5 5 6 10 5 7 7 7 9 6 6 5 6 6 4 5 7 12 12 13 15 16 16 17 17
19 16 14 15 13 12 8 7 8 7 7 7 8 11 8 6 7 8 5 6 6 4 5 5 4 7 7 7 6 5 5 4 4 4 5 10 11 14 15 15 16 17 17
19 17 17 15 14 12 11 9 9 9 7 8 8 8 7 7 7 8 7 5 5 5 4 5 5 5 5 5 4 4 4 5 5 3 3 8 11 13 14 15 17 17 17
21 21 18 17 14 14 12 12 8 8 9 9 8 8 9 7 7 8 7 6 5 4 4 4 5 5 4 3 4 3 4 4 4 4 3 4 10 13 13 16 18 19 19
23 21 20 18 16 16 14 12 10 8 8 8 8 10 11 8 9 9 7 6 5 4 5 4 5 4 3 3 3 1 2 4 3 3 2 3 4 8 11 15 19 20 20
19 22 20 16 16 15 14 11 9 9 9 8 8 8 11 9 10 9 7 6 6 4 4 4 4 3 3 4 4 3 3 2 2 2 2 5 5 4 7 14 18 20 19
21 22 22 20 19 18 14 10 11 12 9 9 8 8 11 10 10 9 7 7 6 4 4 4 4 3 3 5 4 3 3 0 1 0 0 6 6 4 4 10 15 18 18
19 19 20 17 20 18 12 10 8 9 8 9 9 9 12 9 10 9 8 8 6 5 4 4 4 4 3 5 4 4 2 1 2 1 2 5 5 5 5 7 9 10 17
18 20 22 21 20 16 13 13 11 11 9 9 9 12 12 10 11 10 7 8 6 5 5 4 3 4 3 6 4 2 2 3 3 3 2 5 5 5 5 7 7 8 8
22 22 22 23 22 18 14 13 9 11 8 9 8 11 11 12 11 10 10 8 7 6 6 5 3 2 2 5 3 1 3 0 2 3 3 2 6 6 7 10 11 11 10
22 24 24 23 23 21 18 12 8 8 6 7 9 9 10 12 11 11 10 8 8 6 5 5 4 3 2 2 4 3 1 3 6 1 2 3 6 6 9 10 12 11 12
23 22 23 24 24 22 23 18 22 18 13 9 11 9 9 11 11 10 10 9 8 6 6 5 4 3 2 1 1 2 3 2 3 7 2 5 6 12 13 10 10 12 12
23 22 23 23 23 22 23 21 17 17 12 9 10 14 12 10 11 11 10 10 9 6 6 6 6 5 2 2 2 2 1 1 4 5 8 8 10 7 11 10 11 11 12
19 20 21 24 23 22 22 22 23 22 17 14 14 12 10 8 8 10 10 9 8 8 7 6 6 5 4 3 3 3 3 2 2 4 6 9 12 11 11 12 10 9 10
Wind_Direction
171 163 149 147 143 139 136 130 124 114 105 99 97 101 105 102 101 97 89 82 75 72 68 63 60 59 59 58 54 52 48 46 45 43 37 34 20 43 50 42 33 38 42
150 161 148 144 141 133 127 120 115 106 104 109 114 114 106 100 98 95 90 84 79 75 68 64 61 60 62 58 53 50 46 44 42 43 37 30 17 40 48 41 39 41 42
148 150 144 137 131 123 117 116 119 119 122 122 116 112 108 102 98 94 89 87 85 78 73 69 67 67 63 59 53 54 46 44 43 39 40 35 31 41 40 39 37 32 31
146 144 138 129 135 133 132 133 133 129 127 123 117 114 110 105 99 94 90 88 82 80 74 70 70 64 64 60 56 52 49 45 43 40 41 34 30 41 42 41 35 31 32
138 142 130 138 141 142 141 139 137 134 130 126 118 114 111 104 100 97 94 92 83 78 79 74 68 67 65 63 58 54 49 46 46 45 41 35 29 40 40 37 35 31 29
144 130 139 149 150 145 144 143 139 137 133 127 122 117 112 108 104 98 102 92 82 80 77 77 72 68 67 63 61 57 50 44 42 46 38 28 36 39 39 37 32 28 25
141 138 145 153 150 149 147 145 142 141 135 130 126 122 119 113 108 108 100 90 87 81 78 75 74 69 69 62 58 56 52 42 43 47 38 23 34 35 37 34 29 25 19
139 140 153 156 152 151 147 147 145 142 138 132 129 126 121 118 114 109 101 96 93 85 79 76 71 69 66 63 59 54 50 45 45 46 40 28 29 31 32 29 24 20 14
143 147 150 153 150 150 149 149 147 145 140 135 129 124 118 117 117 110 102 97 93 90 80 74 71 65 61 60 57 55 52 49 53 43 35 32 24 28 28 26 20 16 11
145 150 150 149 151 148 149 148 147 142 138 133 127 122 118 116 106 100 99 94 88 84 80 74 71 65 59 57 57 53 48 45 45 43 32 28 24 27 27 24 20 17 12
152 161 156 148 143 138 141 149 143 137 137 128 124 114 104 101 105 105 98 91 88 82 77 73 66 67 62 54 54 49 44 41 38 33 22 23 26 29 27 23 18 16 11
175 168 162 150 144 139 139 133 120 124 115 117 121 131 120 113 112 105 93 87 83 79 73 69 66 62 57 47 47 44 39 38 40 32 23 23 24 25 28 27 18 12 8
172 170 165 151 147 142 139 130 119 119 124 125 132 135 120 113 113 104 101 89 84 80 70 64 55 54 52 40 44 40 30 31 32 36 22 23 27 35 32 19 13 7 0
178 175 164 160 154 145 138 136 136 135 136 138 141 130 132 130 122 113 105 101 89 84 82 70 64 60 54 41 40 40 33 31 39 45 27 27 33 34 19 13 13 7 1
179 178 173 164 158 149 141 144 143 145 152 139 139 140 139 135 130 120 115 104 99 98 87 85 75 64 53 35 36 32 29 36 57 55 42 24 30 23 13 16 7 4 358
183 182 172 171 162 153 154 152 149 150 149 143 147 150 142 138 134 125 122 113 103 101 97 88 78 67 52 17 30 32 22 47 60 60 46 33 22 12 9 9 6 359 352
187 175 174 171 161 161 158 154 155 156 146 151 152 154 140 146 140 130 125 119 114 114 110 97 83 72 42 12 20 25 32 53 64 87 68 41 4 11 7 5 4 355 347
178 179 172 171 166 163 162 159 156 154 151 156 157 155 145 151 144 134 129 123 125 120 113 89 67 64 21 5 342 -0 11 49 83 135 115 16 24 11 356 359 358 350 340
180 174 175 173 172 166 160 156 159 156 154 160 160 155 150 156 148 137 130 127 131 120 99 90 74 50 20 352 326 341 346 29 45 94 82 5 9 348 342 347 345 338 331
180 181 174 174 171 163 155 151 151 156 160 164 167 159 157 159 149 140 131 130 135 126 107 92 86 66 35 341 322 326 317 32 356 272 269 348 348 329 326 332 329 325 321
176 178 180 173 173 162 165 165 165 173 168 170 173 160 162 159 156 144 134 138 146 130 113 102 90 53 43 358 313 316 346 345 328 251 272 314 321 314 299 318 314 319 311
181 180 179 182 174 175 173 176 175 166 178 171 165 164 164 164 161 149 145 150 148 131 120 103 97 105 59 13 20 314 351 294 356 304 300 305 317 320 300 311 309 307 304
185 184 185 182 178 176 176 164 133 126 131 160 175 169 170 169 164 150 152 154 148 136 133 129 114 108 89 49 19 3 334 332 321 282 305 309 319 316 312 312 310 305 305
193 187 183 183 179 181 175 172 172 176 172 187 175 165 167 169 162 155 157 157 150 139 138 138 134 113 140 157 152 62 52 23 345 316 291 323 334 320 315 313 308 306 300
187 185 187 184 180 182 181 181 176 177 182 157 156 159 165 168 166 160 162 158 151 142 141 144 139 155 182 187 174 161 143 194 231 248 292 314 316 312 307 304 305 295 293
188 182 182 183 183 182 182 184 184 179 165 155 161 165 166 166 163 166 163 162 152 144 151 154 153 169 181 185 186 187 193 226 208 243 269 294 301 312 312 299 288 279 276